GLO1101 SBSP-SBCT

Flight info

Callsign GLO1101
Flight time 0h 37m
Altitude 26000
Route SOVSI UZ85 RAXIT
Aircraft B738/M-SDE2E3FGHIRWXY/LB1

Departure

Time 2026-05-08 09:32
Airport Congonhas–Deputado Freitas Nobre Airport (SBSP)

Arrival

Time 2026-05-08 10:09
Airport Curitiba-Afonso Pena International Airport (SBCT)
Time Latitude Longitude Altitude Speed Heading
2026-05-08 09:19 -23.62906 -46.65735 2629 ft 0 kts 328°
2026-05-08 09:26 -23.62912 -46.65731 2629 ft 2 kts 328°
2026-05-08 09:27 -23.62926 -46.65721 2629 ft 2 kts 328°
2026-05-08 09:27 -23.62940 -46.65716 2629 ft 2 kts
2026-05-08 09:27 -23.62953 -46.65723 2629 ft 1 kts 51°
2026-05-08 09:27 -23.62956 -46.65729 2629 ft 1 kts 60°
2026-05-08 09:28 -23.62957 -46.65731 2629 ft 0 kts 58°
2026-05-08 09:29 -23.62956 -46.65728 2629 ft 4 kts 58°
2026-05-08 09:29 -23.62912 -46.65652 2631 ft 14 kts 57°
2026-05-08 09:29 -23.62909 -46.65586 2632 ft 8 kts 130°
2026-05-08 09:30 -23.62970 -46.65543 2633 ft 17 kts 148°
2026-05-08 09:30 -23.63087 -46.65495 2634 ft 14 kts 153°
2026-05-08 09:30 -23.63191 -46.65423 2634 ft 22 kts 148°
2026-05-08 09:30 -23.63348 -46.65314 2634 ft 29 kts 148°
2026-05-08 09:31 -23.63493 -46.65207 2634 ft 17 kts 125°
2026-05-08 09:31 -23.63451 -46.65115 2634 ft 14 kts
2026-05-08 09:31 -23.63360 -46.65162 2634 ft 27 kts 329°
2026-05-08 09:31 -23.62955 -46.65444 2633 ft 107 kts 327°
2026-05-08 09:32 -23.62139 -46.66024 2647 ft 169 kts 329°
2026-05-08 09:32 -23.61101 -46.66765 3201 ft 187 kts 329°
2026-05-08 09:32 -23.60048 -46.67487 4143 ft 184 kts 329°
2026-05-08 09:32 -23.59110 -46.68525 4568 ft 211 kts 299°
2026-05-08 09:33 -23.58715 -46.70144 4764 ft 237 kts 281°
2026-05-08 09:33 -23.58434 -46.71815 5472 ft 237 kts 284°
2026-05-08 09:33 -23.58038 -46.73577 6239 ft 237 kts 287°
2026-05-08 09:33 -23.57602 -46.75324 6959 ft 240 kts 287°
2026-05-08 09:34 -23.57233 -46.77125 7474 ft 253 kts 275°
2026-05-08 09:34 -23.57610 -46.79099 7542 ft 278 kts 243°
2026-05-08 09:34 -23.58896 -46.80760 7895 ft 294 kts 222°
2026-05-08 09:34 -23.60579 -46.82022 8713 ft 296 kts 212°
2026-05-08 09:35 -23.62388 -46.83127 9422 ft 300 kts 211°
2026-05-08 09:35 -23.64211 -46.84228 10176 ft 302 kts 211°
2026-05-08 09:35 -23.66052 -46.85352 10918 ft 305 kts 211°
2026-05-08 09:35 -23.67879 -46.86475 11642 ft 307 kts 211°
2026-05-08 09:36 -23.69778 -46.87646 12371 ft 311 kts 212°
2026-05-08 09:36 -23.71664 -46.88809 13126 ft 313 kts 212°
2026-05-08 09:36 -23.73562 -46.89981 13836 ft 316 kts 212°
2026-05-08 09:36 -23.75453 -46.91203 14543 ft 318 kts 219°
2026-05-08 09:37 -23.77041 -46.92842 15249 ft 317 kts 233°
2026-05-08 09:37 -23.78372 -46.94737 15980 ft 317 kts 238°
2026-05-08 09:37 -23.79625 -46.96724 16645 ft 320 kts 239°
2026-05-08 09:37 -23.80871 -46.98738 17329 ft 323 kts 239°
2026-05-08 09:38 -23.82128 -47.00776 17990 ft 325 kts 239°
2026-05-08 09:38 -23.83393 -47.02832 18642 ft 328 kts 240°
2026-05-08 09:38 -23.84671 -47.04912 19280 ft 331 kts 240°
2026-05-08 09:38 -23.85951 -47.06996 19903 ft 333 kts 240°
2026-05-08 09:39 -23.87242 -47.09098 20503 ft 336 kts 240°
2026-05-08 09:39 -23.88539 -47.11213 21097 ft 338 kts 240°
2026-05-08 09:39 -23.89847 -47.13344 21677 ft 340 kts 240°
2026-05-08 09:39 -23.91159 -47.15485 22232 ft 342 kts 240°
2026-05-08 09:40 -23.92484 -47.17646 22782 ft 344 kts 240°
2026-05-08 09:40 -23.93818 -47.19825 23317 ft 346 kts 240°
2026-05-08 09:40 -23.95159 -47.22015 23839 ft 349 kts 240°
2026-05-08 09:40 -23.96509 -47.24220 24350 ft 351 kts 240°
2026-05-08 09:41 -23.97867 -47.26439 24846 ft 353 kts 240°
2026-05-08 09:41 -23.99228 -47.28665 25331 ft 354 kts 240°
2026-05-08 09:41 -24.00599 -47.30908 25803 ft 356 kts 240°
2026-05-08 09:41 -24.01978 -47.33165 26072 ft 360 kts 240°
2026-05-08 09:42 -24.03382 -47.35471 26075 ft 369 kts 240°
2026-05-08 09:42 -24.04816 -47.37825 26078 ft 376 kts 240°
2026-05-08 09:42 -24.06274 -47.40215 26072 ft 379 kts 240°
2026-05-08 09:42 -24.07734 -47.42606 26072 ft 377 kts 240°
2026-05-08 09:43 -24.09254 -47.44949 26072 ft 379 kts 236°
2026-05-08 09:43 -24.11018 -47.47121 26072 ft 382 kts 228°
2026-05-08 09:43 -24.13094 -47.48969 26076 ft 388 kts 219°
2026-05-08 09:43 -24.15304 -47.50555 26076 ft 388 kts 217°
2026-05-08 09:44 -24.17598 -47.52143 26074 ft 389 kts 217°
2026-05-08 09:44 -24.19891 -47.53728 26075 ft 390 kts 217°
2026-05-08 09:44 -24.22176 -47.55311 26073 ft 389 kts 217°
2026-05-08 09:44 -24.24460 -47.56894 26074 ft 389 kts 217°
2026-05-08 09:45 -24.26751 -47.58485 26074 ft 389 kts 217°
2026-05-08 09:45 -24.29039 -47.60076 26073 ft 389 kts 217°
2026-05-08 09:45 -24.31330 -47.61670 26076 ft 391 kts 217°
2026-05-08 09:45 -24.33627 -47.63269 26071 ft 389 kts 217°
2026-05-08 09:46 -24.35917 -47.64864 26073 ft 388 kts 217°
2026-05-08 09:46 -24.38223 -47.66471 26074 ft 388 kts 217°
2026-05-08 09:46 -24.40475 -47.68089 26073 ft 387 kts 220°
2026-05-08 09:46 -24.42574 -47.69904 26075 ft 384 kts 225°
2026-05-08 09:47 -24.44575 -47.71844 26075 ft 384 kts 227°
2026-05-08 09:47 -24.46548 -47.73808 26074 ft 384 kts 227°
2026-05-08 09:47 -24.48525 -47.75793 26074 ft 384 kts 227°
2026-05-08 09:47 -24.50498 -47.77785 26070 ft 384 kts 227°
2026-05-08 09:48 -24.52463 -47.79773 26060 ft 383 kts 227°
2026-05-08 09:48 -24.54391 -47.81731 26053 ft 382 kts 227°
2026-05-08 09:48 -24.56323 -47.83697 26044 ft 383 kts 227°
2026-05-08 09:48 -24.58275 -47.85685 26035 ft 383 kts 227°
2026-05-08 09:49 -24.60249 -47.87698 26026 ft 383 kts 227°
2026-05-08 09:49 -24.62218 -47.89708 26017 ft 383 kts 227°
2026-05-08 09:49 -24.64173 -47.91705 26008 ft 383 kts 227°
2026-05-08 09:49 -24.66136 -47.93712 25996 ft 383 kts 227°
2026-05-08 09:50 -24.68082 -47.95702 25985 ft 384 kts 227°
2026-05-08 09:50 -24.70041 -47.97707 25975 ft 383 kts 227°
2026-05-08 09:50 -24.71990 -47.99702 25968 ft 383 kts 227°
2026-05-08 09:50 -24.73943 -48.01703 25968 ft 384 kts 227°
2026-05-08 09:51 -24.75904 -48.03713 25964 ft 383 kts 227°
2026-05-08 09:51 -24.77854 -48.05711 25965 ft 382 kts 227°
2026-05-08 09:51 -24.79809 -48.07716 25912 ft 379 kts 227°
2026-05-08 09:51 -24.81729 -48.09684 25512 ft 377 kts 227°
2026-05-08 09:52 -24.83728 -48.11748 25040 ft 404 kts 227°
2026-05-08 09:52 -24.85820 -48.13911 24515 ft 430 kts 227°
2026-05-08 09:52 -24.88091 -48.16254 24065 ft 448 kts 227°
2026-05-08 09:52 -24.90348 -48.18569 23949 ft 435 kts 226°
2026-05-08 09:53 -24.92566 -48.20842 23864 ft 438 kts 227°
2026-05-08 09:53 -24.94826 -48.23169 23786 ft 451 kts 226°
2026-05-08 09:53 -24.97146 -48.25557 23665 ft 448 kts 226°
2026-05-08 09:53 -24.99377 -48.27843 23246 ft 422 kts 227°
2026-05-08 09:54 -25.01454 -48.29967 23148 ft 391 kts 227°
2026-05-08 09:54 -25.03384 -48.31945 23060 ft 365 kts 228°
2026-05-08 09:54 -25.05188 -48.33800 22842 ft 345 kts 228°
2026-05-08 09:54 -25.06924 -48.35596 22260 ft 339 kts 229°
2026-05-08 09:55 -25.08630 -48.37366 21626 ft 334 kts 229°
2026-05-08 09:55 -25.10315 -48.39116 20984 ft 330 kts 229°
2026-05-08 09:55 -25.11981 -48.40844 20347 ft 326 kts 229°
2026-05-08 09:55 -25.13581 -48.42592 19670 ft 321 kts 232°
2026-05-08 09:56 -25.15091 -48.44390 19004 ft 318 kts 232°
2026-05-08 09:56 -25.16580 -48.46181 18336 ft 315 kts 232°
2026-05-08 09:56 -25.18062 -48.47961 17672 ft 313 kts 232°
2026-05-08 09:56 -25.19531 -48.49717 17019 ft 310 kts 232°
2026-05-08 09:57 -25.22443 -48.53187 15723 ft 305 kts 231°
2026-05-08 09:57 -25.23880 -48.54896 15159 ft 300 kts 231°
2026-05-08 09:57 -25.25289 -48.56570 14961 ft 292 kts 231°
2026-05-08 09:58 -25.26668 -48.58211 14891 ft 296 kts 231°
2026-05-08 09:58 -25.28096 -48.59918 14488 ft 304 kts 231°
2026-05-08 09:58 -25.29520 -48.61615 14098 ft 302 kts 231°
2026-05-08 09:58 -25.30965 -48.63334 13719 ft 300 kts 231°
2026-05-08 09:59 -25.32383 -48.65023 13338 ft 299 kts 231°
2026-05-08 09:59 -25.33798 -48.66710 12960 ft 297 kts 231°
2026-05-08 09:59 -25.35210 -48.68395 12588 ft 296 kts 231°
2026-05-08 09:59 -25.36604 -48.70059 12214 ft 294 kts 231°
2026-05-08 10:00 -25.37997 -48.71721 11837 ft 293 kts 231°
2026-05-08 10:00 -25.39383 -48.73375 11464 ft 292 kts 231°
2026-05-08 10:00 -25.40757 -48.75015 11099 ft 291 kts 231°
2026-05-08 10:00 -25.42146 -48.76674 10728 ft 290 kts 231°
2026-05-08 10:01 -25.43523 -48.78320 10363 ft 288 kts 231°
2026-05-08 10:01 -25.44881 -48.79943 10003 ft 287 kts 231°
2026-05-08 10:01 -25.46233 -48.81559 9817 ft 279 kts 231°
2026-05-08 10:01 -25.47557 -48.83144 9476 ft 279 kts 231°
2026-05-08 10:02 -25.48886 -48.84737 9094 ft 279 kts 231°
2026-05-08 10:02 -25.50208 -48.86321 8740 ft 279 kts 231°
2026-05-08 10:02 -25.51531 -48.87906 8379 ft 279 kts 231°
2026-05-08 10:02 -25.52843 -48.89480 8035 ft 278 kts 231°
2026-05-08 10:03 -25.54161 -48.91060 7687 ft 278 kts 231°
2026-05-08 10:03 -25.55465 -48.92624 7491 ft 271 kts 231°
2026-05-08 10:03 -25.56723 -48.94129 7431 ft 259 kts 231°
2026-05-08 10:03 -25.57924 -48.95566 7361 ft 246 kts 230°
2026-05-08 10:04 -25.59106 -48.96880 7090 ft 235 kts 228°
2026-05-08 10:04 -25.60265 -48.98122 6794 ft 225 kts 227°
2026-05-08 10:04 -25.61360 -48.99293 6593 ft 208 kts 228°
2026-05-08 10:04 -25.62376 -49.00382 6418 ft 195 kts 228°
2026-05-08 10:05 -25.63344 -49.01424 6380 ft 192 kts 228°
2026-05-08 10:05 -25.64145 -49.02585 6301 ft 188 kts 252°
2026-05-08 10:05 -25.64299 -49.03999 6241 ft 185 kts 284°
2026-05-08 10:05 -25.63782 -49.05299 5879 ft 186 kts 310°
2026-05-08 10:06 -25.62904 -49.06340 5567 ft 181 kts 316°
2026-05-08 10:06 -25.62014 -49.07294 5371 ft 173 kts 317°
2026-05-08 10:06 -25.61201 -49.08203 5161 ft 156 kts 316°
2026-05-08 10:06 -25.60459 -49.09035 4947 ft 151 kts 316°
2026-05-08 10:07 -25.59732 -49.09852 4730 ft 150 kts 316°
2026-05-08 10:07 -25.58978 -49.10699 4523 ft 152 kts 316°
2026-05-08 10:07 -25.58233 -49.11535 4321 ft 153 kts 316°
2026-05-08 10:07 -25.57482 -49.12378 4128 ft 153 kts 317°
2026-05-08 10:08 -25.56746 -49.13206 3914 ft 148 kts 316°
2026-05-08 10:08 -25.56037 -49.14019 3700 ft 144 kts 317°
2026-05-08 10:08 -25.55307 -49.14826 3517 ft 149 kts 317°
2026-05-08 10:08 -25.54585 -49.15633 3308 ft 145 kts 317°
2026-05-08 10:09 -25.53890 -49.16414 3114 ft 139 kts 317°
2026-05-08 10:09 -25.53217 -49.17161 2996 ft 125 kts 317°
2026-05-08 10:09 -25.52771 -49.17653 2995 ft 58 kts 318°
2026-05-08 10:09 -25.52532 -49.17925 2995 ft 22 kts 300°
2026-05-08 10:10 -25.52600 -49.17994 2995 ft 15 kts 178°
2026-05-08 10:10 -25.52699 -49.17989 2995 ft 13 kts 177°
2026-05-08 10:10 -25.52788 -49.17986 2995 ft 11 kts 179°
2026-05-08 10:10 -25.52867 -49.17978 2995 ft 12 kts 150°
2026-05-08 10:11 -25.52950 -49.17898 2995 ft 18 kts 136°
2026-05-08 10:11 -25.52986 -49.17767 2995 ft 19 kts 90°
2026-05-08 10:11 -25.53014 -49.17614 2995 ft 21 kts 128°
2026-05-08 10:11 -25.53132 -49.17484 2995 ft 25 kts 133°
2026-05-08 10:12 -25.53264 -49.17331 2995 ft 27 kts 137°
2026-05-08 10:12 -25.53391 -49.17192 2995 ft 24 kts 134°
2026-05-08 10:12 -25.53460 -49.17120 2995 ft 9 kts 160°
2026-05-08 10:12 -25.53513 -49.17141 2995 ft 7 kts 200°
2026-05-08 10:13 -25.53553 -49.17130 2995 ft 5 kts 143°
2026-05-08 10:13 -25.53580 -49.17104 2995 ft 5 kts 136°
2026-05-08 10:13 -25.53626 -49.17107 2995 ft 9 kts 206°
2026-05-08 10:13 -25.53651 -49.17121 2995 ft 0 kts 209°